TVF54KJ LFBO-LFBZ

Flight info

Callsign TVF54KJ
Flight time 0h 29m
Altitude 13000
Route LMB G17 ORTEZ/N0340F150 G17 SOVOS
Aircraft A21N/M-SDE2E3FGHIRWXY/LB1

Departure

Time 2026-04-26 14:22
Airport Toulouse-Blagnac Airport (LFBO)

Arrival

Time 2026-04-26 14:51
Airport Biarritz Pays Basque airport (LFBZ)
Time Latitude Longitude Altitude Speed Heading
2026-04-26 14:07 43.63161 1.36955 499 ft 0 kts 71°
2026-04-26 14:14 43.63158 1.36943 499 ft 4 kts 72°
2026-04-26 14:14 43.63150 1.36909 499 ft 4 kts 73°
2026-04-26 14:14 43.63145 1.36872 499 ft 4 kts 91°
2026-04-26 14:14 43.63151 1.36840 499 ft 4 kts 135°
2026-04-26 14:15 43.63158 1.36832 499 ft 3 kts 149°
2026-04-26 14:17 43.63156 1.36833 499 ft 1 kts 149°
2026-04-26 14:18 43.63131 1.36854 499 ft 6 kts 144°
2026-04-26 14:18 43.63090 1.36903 499 ft 9 kts 131°
2026-04-26 14:18 43.63049 1.36979 499 ft 11 kts 118°
2026-04-26 14:18 43.62985 1.37010 499 ft 12 kts 217°
2026-04-26 14:19 43.62914 1.36939 499 ft 14 kts 175°
2026-04-26 14:19 43.62832 1.37016 499 ft 15 kts 139°
2026-04-26 14:19 43.62745 1.37109 499 ft 16 kts 146°
2026-04-26 14:19 43.62648 1.37205 499 ft 18 kts 143°
2026-04-26 14:20 43.62546 1.37310 499 ft 19 kts 143°
2026-04-26 14:20 43.62441 1.37421 499 ft 20 kts 142°
2026-04-26 14:20 43.62327 1.37540 499 ft 21 kts 143°
2026-04-26 14:20 43.62251 1.37619 499 ft 12 kts 143°
2026-04-26 14:21 43.62173 1.37664 499 ft 14 kts 198°
2026-04-26 14:21 43.62104 1.37570 499 ft 15 kts 232°
2026-04-26 14:21 43.62082 1.37486 499 ft 9 kts 317°
2026-04-26 14:21 43.62150 1.37412 499 ft 28 kts 322°
2026-04-26 14:22 43.62532 1.37016 499 ft 106 kts 323°
2026-04-26 14:22 43.63290 1.36223 543 ft 158 kts 322°
2026-04-26 14:22 43.64173 1.35283 1111 ft 164 kts 321°
2026-04-26 14:22 43.65068 1.34257 1731 ft 175 kts 322°
2026-04-26 14:23 43.66075 1.33153 2193 ft 194 kts 322°
2026-04-26 14:23 43.67179 1.31959 2762 ft 211 kts 322°
2026-04-26 14:23 43.68394 1.30637 3201 ft 234 kts 322°
2026-04-26 14:23 43.69568 1.28939 3740 ft 255 kts 309°
2026-04-26 14:24 43.70635 1.26905 4432 ft 266 kts 301°
2026-04-26 14:24 43.71261 1.24484 5237 ft 271 kts 278°
2026-04-26 14:24 43.71162 1.21859 6008 ft 278 kts 254°
2026-04-26 14:24 43.70312 1.19461 6806 ft 281 kts 230°
2026-04-26 14:25 43.68875 1.17688 7615 ft 281 kts 213°
2026-04-26 14:25 43.67194 1.16231 8488 ft 282 kts 216°
2026-04-26 14:25 43.65803 1.14336 9352 ft 282 kts 239°
2026-04-26 14:25 43.65119 1.11847 10173 ft 283 kts 258°
2026-04-26 14:26 43.64714 1.09116 10665 ft 299 kts 259°
2026-04-26 14:26 43.64296 1.06214 11101 ft 315 kts 259°
2026-04-26 14:26 43.63844 1.03224 11776 ft 321 kts 258°
2026-04-26 14:26 43.63368 1.00181 12499 ft 325 kts 258°
2026-04-26 14:27 43.62878 0.97117 12961 ft 329 kts 258°
2026-04-26 14:27 43.62382 0.94047 13124 ft 327 kts 258°
2026-04-26 14:27 43.61888 0.91021 13178 ft 320 kts 258°
2026-04-26 14:27 43.61398 0.88022 13180 ft 320 kts 258°
2026-04-26 14:28 43.60908 0.85026 13179 ft 320 kts 258°
2026-04-26 14:28 43.60415 0.82033 13178 ft 320 kts 258°
2026-04-26 14:28 43.59922 0.79041 13180 ft 320 kts 258°
2026-04-26 14:28 43.59427 0.76040 13180 ft 320 kts 258°
2026-04-26 14:29 43.58935 0.73044 13171 ft 320 kts 258°
2026-04-26 14:29 43.58456 0.70055 13181 ft 320 kts 258°
2026-04-26 14:29 43.57977 0.67065 13174 ft 320 kts 258°
2026-04-26 14:29 43.57495 0.64064 13171 ft 320 kts 258°
2026-04-26 14:30 43.57014 0.61075 13184 ft 320 kts 258°
2026-04-26 14:30 43.56530 0.58076 13173 ft 320 kts 258°
2026-04-26 14:30 43.56046 0.55086 13185 ft 320 kts 258°
2026-04-26 14:30 43.55560 0.52088 13187 ft 320 kts 258°
2026-04-26 14:31 43.55081 0.49135 13177 ft 320 kts 258°
2026-04-26 14:31 43.54592 0.46136 13177 ft 320 kts 258°
2026-04-26 14:31 43.54105 0.43146 13189 ft 320 kts 258°
2026-04-26 14:31 43.53616 0.40157 13190 ft 320 kts 258°
2026-04-26 14:32 43.53128 0.37170 13190 ft 320 kts 258°
2026-04-26 14:32 43.52636 0.34176 13185 ft 320 kts 258°
2026-04-26 14:32 43.52310 0.32194 13183 ft 320 kts 258°
2026-04-26 14:32 43.51817 0.29197 13185 ft 320 kts 258°
2026-04-26 14:33 43.51161 0.25223 13175 ft 320 kts 258°
2026-04-26 14:33 43.50830 0.23219 13177 ft 320 kts 258°
2026-04-26 14:33 43.50336 0.20231 13186 ft 320 kts 258°
2026-04-26 14:33 43.49841 0.17240 13188 ft 320 kts 258°
2026-04-26 14:34 43.49345 0.14252 13186 ft 320 kts 258°
2026-04-26 14:34 43.48847 0.11256 13185 ft 320 kts 258°
2026-04-26 14:34 43.48348 0.08265 13194 ft 320 kts 258°
2026-04-26 14:34 43.47848 0.05277 13179 ft 320 kts 258°
2026-04-26 14:35 43.47347 0.02286 13176 ft 320 kts 258°
2026-04-26 14:35 43.46849 -0.00695 13192 ft 320 kts 258°
2026-04-26 14:35 43.46482 -0.03728 13186 ft 321 kts 263°
2026-04-26 14:35 43.46217 -0.06778 13197 ft 321 kts 264°
2026-04-26 14:36 43.45959 -0.09840 13188 ft 321 kts 264°
2026-04-26 14:36 43.45697 -0.12898 13196 ft 322 kts 264°
2026-04-26 14:36 43.45433 -0.15950 13190 ft 321 kts 264°
2026-04-26 14:36 43.45166 -0.19007 13179 ft 321 kts 264°
2026-04-26 14:37 43.44903 -0.22004 13002 ft 310 kts 264°
2026-04-26 14:37 43.44646 -0.24903 12765 ft 301 kts 264°
2026-04-26 14:37 43.44395 -0.27723 12509 ft 294 kts 264°
2026-04-26 14:37 43.44150 -0.30480 12259 ft 293 kts 263°
2026-04-26 14:38 43.43902 -0.33263 12009 ft 292 kts 263°
2026-04-26 14:38 43.43654 -0.36031 11763 ft 291 kts 263°
2026-04-26 14:38 43.43408 -0.38781 11512 ft 289 kts 263°
2026-04-26 14:38 43.43161 -0.41523 11263 ft 288 kts 263°
2026-04-26 14:39 43.42912 -0.44285 11016 ft 286 kts 263°
2026-04-26 14:39 43.42670 -0.46960 10774 ft 285 kts 263°
2026-04-26 14:39 43.42424 -0.49693 10531 ft 283 kts 263°
2026-04-26 14:39 43.42184 -0.52343 10299 ft 283 kts 263°
2026-04-26 14:40 43.41936 -0.55054 10054 ft 281 kts 263°
2026-04-26 14:40 43.41693 -0.57715 9753 ft 280 kts 263°
2026-04-26 14:40 43.41454 -0.60328 9443 ft 279 kts 263°
2026-04-26 14:40 43.41211 -0.62976 9127 ft 279 kts 263°
2026-04-26 14:41 43.40966 -0.65624 8812 ft 279 kts 262°
2026-04-26 14:41 43.40722 -0.68268 8494 ft 278 kts 262°
2026-04-26 14:41 43.40478 -0.70907 8189 ft 278 kts 262°
2026-04-26 14:41 43.40235 -0.73528 7896 ft 275 kts 262°
2026-04-26 14:42 43.39992 -0.76141 7597 ft 275 kts 262°
2026-04-26 14:42 43.39749 -0.78746 7295 ft 274 kts 262°
2026-04-26 14:42 43.39507 -0.81346 6974 ft 274 kts 262°
2026-04-26 14:42 43.39263 -0.83954 6674 ft 275 kts 262°
2026-04-26 14:43 43.39019 -0.86548 6356 ft 272 kts 262°
2026-04-26 14:43 43.38784 -0.89134 6013 ft 273 kts 265°
2026-04-26 14:43 43.38867 -0.91741 5683 ft 274 kts 278°
2026-04-26 14:43 43.39197 -0.94320 5370 ft 274 kts 280°
2026-04-26 14:44 43.39549 -0.96904 5051 ft 274 kts 281°
2026-04-26 14:44 43.39897 -0.99488 4682 ft 275 kts 281°
2026-04-26 14:44 43.40239 -1.02070 4278 ft 275 kts 281°
2026-04-26 14:44 43.40577 -1.04657 3899 ft 275 kts 281°
2026-04-26 14:45 43.40911 -1.07229 3544 ft 273 kts 281°
2026-04-26 14:45 43.41131 -1.08930 3313 ft 272 kts 281°
2026-04-26 14:45 43.41574 -1.12348 2862 ft 270 kts 282°
2026-04-26 14:45 43.42242 -1.14708 2623 ft 260 kts 302°
2026-04-26 14:46 43.43176 -1.16740 2489 ft 248 kts 305°
2026-04-26 14:46 43.44123 -1.18643 2439 ft 234 kts 306°
2026-04-26 14:46 43.45024 -1.20443 2435 ft 216 kts 306°
2026-04-26 14:46 43.45853 -1.22107 2450 ft 212 kts 306°
2026-04-26 14:47 43.46620 -1.23850 2464 ft 215 kts 296°
2026-04-26 14:47 43.47083 -1.25804 2480 ft 215 kts 281°
2026-04-26 14:47 43.47226 -1.27854 2480 ft 216 kts 270°
2026-04-26 14:47 43.47114 -1.29892 2480 ft 207 kts 270°
2026-04-26 14:48 43.47095 -1.31771 2541 ft 193 kts 269°
2026-04-26 14:48 43.47074 -1.33624 2515 ft 195 kts 269°
2026-04-26 14:48 43.47051 -1.35489 2448 ft 195 kts 270°
2026-04-26 14:48 43.47028 -1.37353 2233 ft 192 kts 270°
2026-04-26 14:49 43.47006 -1.39180 2001 ft 189 kts 270°
2026-04-26 14:49 43.46984 -1.40919 1763 ft 179 kts 270°
2026-04-26 14:49 43.46963 -1.42607 1497 ft 170 kts 270°
2026-04-26 14:49 43.46942 -1.44145 1267 ft 147 kts 270°
2026-04-26 14:50 43.46924 -1.45526 1061 ft 143 kts 270°
2026-04-26 14:50 43.46906 -1.46874 864 ft 140 kts 270°
2026-04-26 14:50 43.46888 -1.48211 672 ft 138 kts 270°
2026-04-26 14:50 43.46870 -1.49527 475 ft 138 kts 270°
2026-04-26 14:51 43.46853 -1.50841 313 ft 136 kts 271°
2026-04-26 14:51 43.46842 -1.52082 245 ft 116 kts 269°
2026-04-26 14:51 43.46831 -1.52922 252 ft 41 kts 270°
2026-04-26 14:51 43.46835 -1.53132 252 ft 21 kts 285°
2026-04-26 14:52 43.46846 -1.53176 251 ft 1 kts 294°
2026-04-26 14:52 43.46828 -1.53187 252 ft 10 kts 84°
2026-04-26 14:52 43.46893 -1.53165 250 ft 11 kts 360°
2026-04-26 14:52 43.46972 -1.53206 250 ft 13 kts 339°
2026-04-26 14:53 43.47063 -1.53237 250 ft 14 kts 359°